| time (UTC) | temp C | wind direction | speed KPH | gust KPH | rain 1hr cm | rain 24hr cm | rain mn cm | humidity % | barometer mb |
| 20260507054824 | 6 | 112 | 1.6 | 6.4 | 0.00 | 0.23 | 0.05 | 94 | 1012.2 |
| 20260507053825 | 6 | 307 | 1.6 | 11.3 | 0.00 | 0.23 | 0.05 | 94 | 1012.0 |
| 20260507052825 | 6 | 111 | 1.6 | 12.9 | 0.00 | 0.23 | 0.05 | 94 | 1012.0 |
| 20260507052323 | 6 | 271 | 0.0 | 6.4 | 0.00 | 0.23 | 0.05 | 94 | 1012.0 |
| 20260507052039 | 6 | 232 | 1.6 | 4.8 | 0.00 | 0.25 | 0.05 | 94 | 1011.8 |
| 20260507045822 | 6 | 119 | 0.0 | 6.4 | 0.00 | 0.30 | 0.05 | 94 | 1011.7 |
| 20260507044822 | 6 | 130 | 0.0 | 4.8 | 0.00 | 0.33 | 0.05 | 94 | 1011.5 |
| 20260507043823 | 6 | 87 | 0.0 | 4.8 | 0.00 | 0.33 | 0.05 | 94 | 1011.5 |
| 20260507042823 | 6 | 350 | 0.0 | 6.4 | 0.00 | 0.33 | 0.05 | 94 | 1011.4 |
| 20260507041822 | 6 | 24 | 0.0 | 4.8 | 0.00 | 0.33 | 0.05 | 94 | 1011.2 |
| 20260507040823 | 6 | 279 | 1.6 | 9.7 | 0.00 | 0.33 | 0.05 | 94 | 1011.2 |
| 20260507035822 | 6 | 296 | 1.6 | 6.4 | 0.00 | 0.33 | 0.05 | 94 | 1011.1 |
| 20260507034823 | 6 | 272 | 0.0 | 4.8 | 0.00 | 0.33 | 0.05 | 94 | 1011.1 |
| 20260507033822 | 6 | 259 | 0.0 | 6.4 | 0.00 | 0.33 | 0.05 | 94 | 1011.1 |
| 20260507032822 | 6 | 307 | 1.6 | 11.3 | 0.03 | 0.33 | 0.05 | 94 | 1011.0 |
| 20260507031822 | 6 | 355 | 0.0 | 4.8 | 0.03 | 0.33 | 0.05 | 94 | 1011.1 |
| 20260507031323 | 6 | 97 | 0.0 | 3.2 | 0.03 | 0.33 | 0.05 | 94 | 1011.0 |
| 20260507030323 | 6 | 38 | 0.0 | 8.0 | 0.03 | 0.33 | 0.05 | 94 | 1010.9 |
| 20260507024822 | 6 | 92 | 0.0 | 4.8 | 0.03 | 0.33 | 0.05 | 94 | 1011.0 |
| 20260507023822 | 6 | 319 | 1.6 | 9.7 | 0.03 | 0.33 | 0.05 | 94 | 1011.1 |
| 20260507022823 | 6 | 103 | 0.0 | 4.8 | 0.00 | 0.30 | 0.03 | 94 | 1011.0 |
| 20260507021823 | 6 | 270 | 0.0 | 3.2 | 0.00 | 0.30 | 0.03 | 94 | 1010.9 |
| 20260507020819 | 6 | 136 | 0.0 | 8.0 | 0.00 | 0.30 | 0.03 | 94 | 1010.8 |
| 20260507015816 | 6 | 33 | 1.6 | 6.4 | 0.00 | 0.30 | 0.03 | 94 | 1010.7 |
| 20260507014816 | 6 | 55 | 1.6 | 8.0 | 0.00 | 0.30 | 0.03 | 94 | 1010.6 |
| 20260507013817 | 6 | 86 | 0.0 | 4.8 | 0.00 | 0.33 | 0.03 | 94 | 1010.6 |
| 20260507012816 | 6 | 119 | 1.6 | 8.0 | 0.00 | 0.33 | 0.03 | 94 | 1010.5 |
| 20260507011816 | 6 | 40 | 1.6 | 8.0 | 0.00 | 0.33 | 0.03 | 94 | 1010.5 |
| 20260507011318 | 6 | 71 | 1.6 | 4.8 | 0.00 | 0.33 | 0.03 | 94 | 1010.4 |
| 20260507005817 | 7 | 65 | 0.0 | 6.4 | 0.00 | 0.33 | 0.03 | 94 | 1010.3 |
| 20260507004816 | 7 | 232 | 0.0 | 4.8 | 0.00 | 0.33 | 0.03 | 94 | 1010.3 |
| 20260507003816 | 7 | 227 | 0.0 | 6.4 | 0.00 | 0.33 | 0.03 | 94 | 1010.1 |
| 20260507002816 | 7 | 280 | 0.0 | 9.7 | 0.00 | 0.33 | 0.03 | 94 | 1010.0 |
| 20260507001816 | 7 | 134 | 0.0 | 4.8 | 0.00 | 0.33 | 0.03 | 94 | 1010.0 |
| 20260507000817 | 7 | 223 | 0.0 | 8.0 | 0.00 | 0.33 | 0.03 | 94 | 1010.0 |
| 20260506235817 | 7 | 90 | 0.0 | 4.8 | 0.00 | 0.33 | 0.03 | 94 | 1010.0 |
| 20260506234816 | 7 | 38 | 1.6 | 8.0 | 0.00 | 0.33 | 0.03 | 94 | 1009.9 |
| 20260506233816 | 7 | 231 | 1.6 | 11.3 | 0.03 | 0.33 | 0.03 | 94 | 1009.8 |
| 20260506232816 | 7 | 327 | 0.0 | 6.4 | 0.03 | 0.33 | 0.03 | 94 | 1009.9 |
| 20260506231815 | 7 | 139 | 0.0 | 4.8 | 0.03 | 0.33 | 0.03 | 94 | 1009.8 |
| 20260506231317 | 7 | 64 | 0.0 | 4.8 | 0.03 | 0.33 | 0.03 | 94 | 1009.8 |
| 20260506225817 | 7 | 59 | 0.0 | 4.8 | 0.03 | 0.33 | 0.03 | 94 | 1009.9 |
| 20260506224821 | 7 | 98 | 0.0 | 4.8 | 0.03 | 0.30 | 0.00 | 94 | 1009.8 |
| 20260506224816 | 7 | 86 | 1.6 | 11.3 | 0.05 | 0.33 | 0.03 | 94 | 1009.8 |
| 20260506222816 | 7 | 43 | 0.0 | 6.4 | 0.03 | 0.30 | 0.00 | 94 | 1009.7 |
| 20260506221810 | 7 | 290 | 1.6 | 9.7 | 0.03 | 0.30 | 0.00 | 94 | 1009.6 |
| 20260506221312 | 7 | 49 | 0.0 | 6.4 | 0.03 | 0.30 | 0.00 | 94 | 1009.5 |
| 20260506215809 | 7 | 51 | 0.0 | 0.0 | 0.03 | 0.33 | 0.33 | 94 | 1009.4 |
| 20260506214808 | 7 | 101 | 0.0 | 6.4 | 0.00 | 0.30 | 0.30 | 94 | 1009.4 |
| 20260506213806 | 7 | 315 | 1.6 | 9.7 | 0.00 | 0.30 | 0.30 | 94 | 1009.4 |
| 20260506212807 | 7 | 145 | 1.6 | 9.7 | 0.00 | 0.30 | 0.30 | 94 | 1009.4 |
| 20260506211807 | 7 | 207 | 1.6 | 11.3 | 0.00 | 0.30 | 0.30 | 94 | 1009.3 |
| 20260506210807 | 7 | 329 | 1.6 | 9.7 | 0.00 | 0.33 | 0.30 | 94 | 1009.3 |
| 20260506205804 | 7 | 76 | 1.6 | 6.4 | 0.00 | 0.33 | 0.30 | 94 | 1009.0 |
| 20260506204801 | 7 | 234 | 1.6 | 4.8 | 0.03 | 0.36 | 0.30 | 94 | 1009.0 |
| 20260506203801 | 7 | 206 | 1.6 | 4.8 | 0.03 | 0.38 | 0.30 | 94 | 1008.9 |
| 20260506202801 | 7 | 72 | 1.6 | 9.7 | 0.03 | 0.41 | 0.30 | 93 | 1008.9 |
| 20260506201801 | 7 | 205 | 1.6 | 6.4 | 0.03 | 0.46 | 0.30 | 93 | 1008.7 |
| 20260506200801 | 7 | 105 | 1.6 | 6.4 | 0.03 | 0.51 | 0.30 | 94 | 1008.7 |
| 20260506195801 | 7 | 86 | 1.6 | 11.3 | 0.05 | 0.53 | 0.30 | 94 | 1008.6 |
| 20260506194801 | 7 | 57 | 1.6 | 8.0 | 0.03 | 0.58 | 0.28 | 94 | 1008.5 |
| 20260506193801 | 7 | 94 | 0.0 | 4.8 | 0.03 | 0.64 | 0.28 | 94 | 1008.5 |
| 20260506192801 | 7 | 91 | 0.0 | 4.8 | 0.03 | 0.69 | 0.28 | 94 | 1008.4 |
| 20260506191754 | 7 | 284 | 0.0 | 6.4 | 0.03 | 0.71 | 0.28 | 93 | 1008.2 |
| 20260506190755 | 7 | 274 | 0.0 | 6.4 | 0.03 | 0.76 | 0.28 | 93 | 1008.1 |
| 20260506185755 | 7 | 265 | 0.0 | 4.8 | 0.00 | 0.79 | 0.25 | 93 | 1008.0 |
| 20260506184754 | 7 | 45 | 0.0 | 4.8 | 0.00 | 0.86 | 0.25 | 93 | 1007.9 |
| 20260506184256 | 7 | 254 | 0.0 | 4.8 | 0.00 | 0.97 | 0.25 | 93 | 1007.8 |
| 20260506182756 | 7 | 256 | 1.6 | 4.8 | 0.00 | 0.99 | 0.25 | 93 | 1007.8 |
| 20260506181755 | 7 | 277 | 1.6 | 6.4 | 0.00 | 1.02 | 0.25 | 93 | 1007.8 |
| 20260506180756 | 7 | 252 | 1.6 | 9.7 | 0.00 | 1.04 | 0.25 | 93 | 1007.6 |
| 20260506180256 | 7 | 218 | 1.6 | 8.0 | 0.00 | 1.07 | 0.25 | 93 | 1007.6 |
| 20260506174753 | 7 | 257 | 1.6 | 11.3 | 0.00 | 1.09 | 0.25 | 93 | 1007.5 |
| 20260506173753 | 7 | 13 | 1.6 | 14.5 | 0.00 | 1.17 | 0.25 | 93 | 1007.4 |
| 20260506172753 | 8 | 229 | 1.6 | 11.3 | 0.00 | 1.17 | 0.25 | 93 | 1007.4 |
| 20260506171753 | 8 | 228 | 1.6 | 6.4 | 0.00 | 1.17 | 0.25 | 93 | 1007.4 |
| 20260506171253 | 8 | 257 | 1.6 | 8.0 | 0.00 | 1.19 | 0.25 | 93 | 1007.2 |
| 20260506165753 | 8 | 220 | 1.6 | 8.0 | 0.00 | 1.19 | 0.25 | 93 | 1007.3 |
| 20260506164753 | 8 | 234 | 0.0 | 3.2 | 0.00 | 1.22 | 0.25 | 93 | 1007.3 |
| 20260506163753 | 8 | 5 | 1.6 | 6.4 | 0.00 | 1.22 | 0.25 | 93 | 1007.2 |
| 20260506162750 | 8 | 341 | 1.6 | 6.4 | 0.00 | 1.24 | 0.25 | 93 | 1007.2 |
| 20260506161750 | 8 | 304 | 1.6 | 8.0 | 0.00 | 1.32 | 0.25 | 93 | 1007.1 |
| 20260506160751 | 8 | 283 | 1.6 | 9.7 | 0.00 | 1.40 | 0.25 | 93 | 1007.1 |
| 20260506155751 | 8 | 232 | 0.0 | 8.0 | 0.00 | 1.50 | 0.25 | 93 | 1007.1 |
| 20260506154751 | 8 | 196 | 1.6 | 14.5 | 0.00 | 1.52 | 0.25 | 93 | 1007.2 |
| 20260506154251 | 8 | 103 | 1.6 | 8.0 | 0.00 | 1.55 | 0.25 | 93 | 1006.9 |
| 20260506153252 | 8 | 52 | 0.0 | 4.8 | 0.00 | 1.57 | 0.25 | 93 | 1006.9 |
| 20260506151751 | 8 | 223 | 0.0 | 4.8 | 0.00 | 1.63 | 0.25 | 93 | 1006.6 |
| 20260506150750 | 8 | 238 | 1.6 | 8.0 | 0.00 | 1.65 | 0.25 | 93 | 1006.6 |
| 20260506145745 | 8 | 248 | 1.6 | 8.0 | 0.00 | 1.65 | 0.25 | 93 | 1006.5 |
| 20260506144745 | 9 | 156 | 1.6 | 9.7 | 0.00 | 1.70 | 0.25 | 93 | 1006.5 |
| 20260506143749 | 9 | 292 | 0.0 | 11.3 | 0.00 | 1.70 | 0.25 | 93 | 1006.5 |
| 20260506143744 | 9 | 94 | 1.6 | 9.7 | 0.00 | 1.70 | 0.25 | 94 | 1006.4 |
| 20260506141745 | 9 | 118 | 1.6 | 4.8 | 0.00 | 1.70 | 0.25 | 93 | 1006.4 |
| 20260506141246 | 9 | 97 | 1.6 | 6.4 | 0.00 | 1.70 | 0.25 | 93 | 1006.4 |
| 20260506135745 | 9 | 302 | 3.2 | 19.3 | 0.00 | 1.70 | 0.25 | 93 | 1006.4 |
| 20260506134745 | 9 | 278 | 1.6 | 12.9 | 0.00 | 1.70 | 0.25 | 93 | 1006.4 |
| 20260506133745 | 9 | 291 | 1.6 | 9.7 | 0.00 | 1.73 | 0.25 | 93 | 1006.5 |
| 20260506132740 | 9 | 42 | 1.6 | 11.3 | 0.00 | 1.75 | 0.25 | 93 | 1006.3 |
| 20260506131741 | 9 | 225 | 1.6 | 14.5 | 0.03 | 1.75 | 0.25 | 93 | 1006.3 |
| 20260506130741 | 10 | 230 | 0.0 | 19.3 | 0.03 | 1.75 | 0.25 | 94 | 1006.1 |
| 20260506125741 | 10 | 195 | 1.6 | 12.9 | 0.05 | 1.75 | 0.25 | 94 | 1005.9 |
| 20260506124741 | 10 | 213 | 1.6 | 12.9 | 0.05 | 1.75 | 0.25 | 94 | 1005.9 |
| 20260506123740 | 10 | 31 | 1.6 | 11.3 | 0.05 | 1.75 | 0.25 | 94 | 1005.9 |
| 20260506123242 | 10 | 321 | 1.6 | 9.7 | 0.05 | 1.75 | 0.25 | 94 | 1005.8 |
| 20260506121740 | 10 | 300 | 1.6 | 6.4 | 0.03 | 1.75 | 0.23 | 94 | 1005.7 |
| 20260506120735 | 10 | 242 | 3.2 | 12.9 | 0.03 | 1.75 | 0.23 | 94 | 1006.0 |
| 20260506120233 | 10 | 283 | 4.8 | 16.1 | 0.00 | 1.73 | 0.23 | 94 | 1005.8 |
| 20260506114732 | 10 | 247 | 1.6 | 8.0 | 0.03 | 1.73 | 0.23 | 94 | 1005.6 |
| 20260506113733 | 10 | 262 | 3.2 | 12.9 | 0.03 | 1.73 | 0.23 | 94 | 1005.6 |
| 20260506112732 | 10 | 296 | 1.6 | 12.9 | 0.05 | 1.73 | 0.23 | 94 | 1005.4 |
| 20260506112233 | 10 | 268 | 3.2 | 16.1 | 0.05 | 1.73 | 0.23 | 94 | 1005.4 |
| 20260506110732 | 10 | 227 | 3.2 | 14.5 | 0.05 | 1.73 | 0.23 | 94 | 1005.4 |
| 20260506105732 | 10 | 245 | 1.6 | 9.7 | 0.05 | 1.73 | 0.23 | 94 | 1005.4 |
| 20260506104732 | 10 | 257 | 1.6 | 11.3 | 0.05 | 1.70 | 0.20 | 94 | 1005.4 |
| 20260506103732 | 10 | 269 | 3.2 | 12.9 | 0.05 | 1.70 | 0.20 | 94 | 1005.5 |
| 20260506102733 | 10 | 247 | 1.6 | 6.4 | 0.03 | 1.68 | 0.18 | 94 | 1005.4 |
| 20260506101730 | 10 | 271 | 1.6 | 9.7 | 0.05 | 1.68 | 0.18 | 94 | 1005.3 |
| 20260506100728 | 10 | 262 | 0.0 | 6.4 | 0.05 | 1.68 | 0.18 | 94 | 1005.2 |
| 20260506095729 | 10 | 246 | 3.2 | 11.3 | 0.05 | 1.68 | 0.18 | 94 | 1005.2 |
| 20260506094728 | 10 | 234 | 1.6 | 6.4 | 0.03 | 1.65 | 0.15 | 94 | 1005.2 |
| 20260506093729 | 10 | 294 | 0.0 | 1.6 | 0.03 | 1.65 | 0.15 | 94 | 1005.0 |
| 20260506092726 | 10 | 250 | 0.0 | 4.8 | 0.03 | 1.65 | 0.15 | 94 | 1005.1 |
| 20260506091724 | 10 | 225 | 0.0 | 6.4 | 0.00 | 1.65 | 0.15 | 94 | 1005.0 |
| 20260506090723 | 10 | 264 | 0.0 | 4.8 | 0.00 | 1.65 | 0.15 | 94 | 1005.0 |
| 20260506085717 | 10 | 232 | 1.6 | 6.4 | 0.00 | 1.65 | 0.15 | 94 | 1005.0 |
| 20260506084717 | 10 | 257 | 0.0 | 6.4 | 0.00 | 1.65 | 0.15 | 94 | 1004.8 |
| 20260506083716 | 10 | 249 | 0.0 | 3.2 | 0.00 | 1.65 | 0.15 | 94 | 1004.7 |
| 20260506082716 | 10 | 259 | 1.6 | 6.4 | 0.00 | 1.65 | 0.15 | 94 | 1004.8 |
| 20260506081717 | 10 | 294 | 1.6 | 11.3 | 0.00 | 1.65 | 0.15 | 94 | 1004.8 |
| 20260506080716 | 10 | 265 | 1.6 | 8.0 | 0.00 | 1.65 | 0.15 | 94 | 1004.7 |
| 20260506072716 | 10 | 235 | 0.0 | 0.0 | 0.00 | 1.65 | 0.15 | 94 | 1004.7 |
| 20260506071717 | 9 | 229 | 0.0 | 3.2 | 0.00 | 1.65 | 0.15 | 94 | 1004.6 |
| 20260506070716 | 9 | 240 | 0.0 | 4.8 | 0.03 | 1.65 | 0.15 | 94 | 1004.5 |
| 20260506061717 | 9 | 244 | 0.0 | 4.8 | 0.03 | 1.65 | 0.15 | 94 | 1004.4 |
| 20260506061218 | 9 | 270 | 0.0 | 3.2 | 0.03 | 1.63 | 0.13 | 94 | 1004.4 |